Location: Alphen aan den Rijn
(52.1277°N, 4.6689°E)
Time: 08:43:50
(UTC+01:00)

ISS - Pass Details

Date: 28 October 2021
Orbit: 417 x 423 km, 51.6° (Epoch: 01 December)

Event Time Altitude Azimuth Distance (km) Brightness Sun altitude
Exits shadow 07:02:37 23° 243° (WSW) 946 -2.5 -13.8°
Maximum altitude 07:04:33 66° 166° (SSE) 463 -3.5 -13.5°
Drops below altitude 10° 07:07:54 10° 84° (E) 1,503 0.5 -13.0°
Sets 07:10:00 0° 81° (E) 2,367 1.8 -12.7°
